Kezdőlap
METAR-TAF:

METAR-TAF

Repülőterek :

Spencer Municipal Airport

Spencer, Iowa, Amerikai Egyesült Államok

földrajzi szélesség: 43-09-56N, földrajzi hosszúság: 095-12-10W, magasság: 408 m

Jelenlegi meteorológiai megfigyelések

A jelentés 40 perccel ezelõtt készült, 15:53 UTC
Déli szél 13 kt
Hőmérséklet 29°C
Páratartalom 48%
Légköri nyomás 1018 hPa
Látótávolság: 16.1 km
Derült ég

METAR: KSPW 291553Z AUTO 17013KT 10SM CLR 29/17 A3006 RMK AO2 SLP170 T02890172

Idő: 11:33 (16:33 UTC)


TAF: hiányzik

Meteorológiai megfigyelések és előrejelzések több, mint 4000 repülőtéren (METAR és TAF jelentéseket).

A térképen piros és sárga pontok jelzik az elérhető meteorológiai állomásokat.

Mozgassa az egeret a pont fölött, hogy megjelenjen az állomás neve.

Azután kattintson az időjárási megfigyelések és előrejelzések megtekintéséhez.

A térkép megváltoztatása: kattintson a fekete keresztel jelölt zöld gombra ráközelítéshez, a vonallal jelölt zöld gombra távolításhoz, vagy a zöld nyilakra a szomszédos térképek eléréséhez.


METAR-TAF: